DW5513 Weather Reports


Display with metric or nautical units.
time (UTC)temp
F
wind
direction
speed
MPH
gust
MPH
rain 1hr
in
rain 24hr
in
rain mn
in
humidity
%
barometer
mb
20260508121503 42 345 1.0 6.0 0.00 0.00 0.00 82 1012.8
20260508120105 41 44 0.0 6.0 0.00 0.00 0.00 84 1012.8
20260508114557 40 264 0.0 1.0 0.00 0.00 0.00 87 1012.7
20260508113057 40 20 0.0 1.0 0.00 0.00 0.00 87 1012.7
20260508111602 39 25 0.0 1.0 0.00 0.00 0.00 87 1013.0
20260508110056 39 148 0.0 1.0 0.00 0.00 0.00 89 1012.8
20260508104551 38 148 0.0 0.0 0.00 0.00 0.00 92 1012.6
20260508103052 36 148 0.0 0.0 0.00 0.00 0.00 91 1012.2
20260508101549 37 148 0.0 0.0 0.00 0.00 0.00 90 1012.2
20260508100046 38 148 0.0 0.0 0.00 0.00 0.00 89 1012.1
20260508094548 38 148 0.0 1.0 0.00 0.00 0.00 88 1011.9
20260508093048 38 262 0.0 1.0 0.00 0.00 0.00 88 1011.9
20260508091556 38 49 0.0 3.0 0.00 0.00 0.00 87 1011.9
20260508090042 39 320 1.0 4.0 0.00 0.00 0.00 87 1011.8
20260508084546 39 307 0.0 8.0 0.00 0.00 0.00 86 1011.9
20260508083048 40 238 1.0 10.0 0.00 0.00 0.00 82 1012.0
20260508081536 40 260 1.0 6.0 0.00 0.00 0.00 79 1011.7
20260508080052 38 99 0.0 0.0 0.00 0.00 0.00 84 1011.4
20260508074529 37 88 0.0 0.0 0.00 0.00 0.00 85 1011.2
20260508073029 36 77 0.0 1.0 0.00 0.00 0.00 86 1011.1
20260508071528 36 22 0.0 1.0 0.00 0.00 0.00 86 1011.1
20260508070027 35 2 0.0 1.0 0.00 0.00 0.00 86 1010.9
20260508064539 35 20 0.0 2.0 0.00 0.00 0.00 86 1010.8
20260508063027 35 30 0.0 3.0 0.00 0.00 0.00 86 1010.9
20260508061525 35 71 1.0 4.0 0.00 0.00 0.00 85 1011.0
20260508060021 35 82 1.0 4.0 0.00 0.00 0.00 86 1011.0
20260508054532 35 75 1.0 3.0 0.00 0.00 0.00 86 1011.2
20260508053018 35 354 0.0 1.0 0.00 0.00 0.00 87 1011.2
20260508051515 35 27 0.0 3.0 0.00 0.00 0.00 87 1011.3
20260508050013 34 42 0.0 0.0 0.00 0.00 0.00 86 1011.3
20260508044511 35 42 0.0 1.0 0.00 0.00 0.00 85 1011.2
20260508043008 35 359 0.0 0.0 0.00 0.00 0.00 83 1011.2
20260508041505 36 359 0.0 0.0 0.00 0.00 0.00 81 1011.0
20260508040007 37 359 0.0 1.0 0.00 0.00 0.00 79 1010.8
20260508034502 38 30 0.0 3.0 0.00 0.00 0.00 77 1010.6
20260508031600 40 51 0.0 1.0 0.00 0.00 0.00 77 1010.7
20260508030100 40 51 0.0 1.0 0.00 0.00 0.00 74 1010.7
20260508024602 41 231 0.0 0.0 0.00 0.00 0.00 69 1010.7
20260508023201 43 231 0.0 1.0 0.00 0.00 0.00 66 1010.8
20260508021559 43 231 0.0 0.0 0.00 0.00 0.00 64 1010.8
20260508020059 43 231 0.0 0.0 0.00 0.00 0.00 59 1010.9
20260508014557 43 231 0.0 1.0 0.00 0.00 0.00 58 1010.9
20260508013157 44 229 0.0 1.0 0.00 0.00 0.00 59 1010.7
20260508011557 44 252 0.0 3.0 0.00 0.00 0.00 55 1010.7
20260508010056 43 262 0.0 0.0 0.00 0.00 0.00 58 1010.5
20260508004559 44 262 0.0 0.0 0.00 0.00 0.00 56 1010.3
20260508003154 45 263 0.0 0.0 0.00 0.00 0.00 53 1010.2
20260508001555 47 269 0.0 0.0 0.00 0.00 0.00 49 1010.1
20260508000058 48 224 0.0 1.0 0.00 0.00 0.00 46 1009.9
20260507234558 49 314 0.0 4.0 0.00 0.00 0.00 44 1009.8
20260507233153 51 255 0.0 7.0 0.00 0.00 0.00 41 1009.6
20260507231552 52 246 1.0 9.0 0.00 0.00 0.00 40 1009.6
20260507230052 52 330 2.0 8.0 0.00 0.00 0.00 38 1009.8
20260507224551 54 302 2.0 7.0 0.00 0.00 0.00 39 1009.6
20260507223152 54 236 3.0 9.0 0.00 0.00 0.00 39 1009.5
20260507221549 54 246 2.0 8.0 0.00 0.00 0.00 39 1009.6
20260507220048 54 332 3.0 14.0 0.00 0.00 0.00 39 1009.6
20260507214548 54 302 5.0 12.0 0.00 0.00 0.00 37 1009.8
20260507213147 54 162 3.0 13.0 0.00 0.00 0.00 38 1009.8
20260507211556 55 289 5.0 11.0 0.00 0.00 0.00 41 1009.8
20260507210104 53 210 2.0 11.0 0.00 0.00 0.00 44 1009.8
20260507204548 53 341 3.0 10.0 0.00 0.02 0.00 47 1009.8
20260507203144 52 15 1.0 13.0 0.00 0.02 0.00 47 1009.9
20260507201543 54 318 4.0 14.0 0.00 0.02 0.00 43 1009.7
20260507200051 55 270 7.0 20.0 0.00 0.02 0.00 44 1009.9
20260507194549 55 349 4.0 10.0 0.00 0.02 0.00 46 1009.9
20260507193136 54 8 3.0 10.0 0.00 0.02 0.00 48 1010.2
20260507191536 53 340 3.0 15.0 0.00 0.02 0.00 47 1010.4
20260507190043 53 266 1.0 15.0 0.00 0.02 0.00 48 1010.5
20260507184541 53 246 4.0 11.0 0.00 0.02 0.00 50 1010.6
20260507183129 52 193 2.0 13.0 0.00 0.02 0.00 51 1010.8
20260507181528 52 242 2.0 11.0 0.00 0.02 0.00 49 1010.9
20260507180028 52 224 5.0 11.0 0.00 0.02 0.00 50 1011.0
20260507174532 52 323 4.0 12.0 0.00 0.02 0.00 53 1011.0
20260507173126 51 228 5.0 12.0 0.00 0.02 0.00 52 1011.1
20260507171522 51 171 2.0 13.0 0.00 0.02 0.00 54 1011.1
20260507170022 50 176 3.0 11.0 0.00 0.02 0.00 57 1011.3
20260507164528 50 24 3.0 16.0 0.00 0.08 0.00 56 1011.4
20260507163120 50 97 4.0 14.0 0.00 0.08 0.00 53 1011.6
20260507161516 49 13 6.0 15.0 0.00 0.08 0.00 57 1011.7
20260507160021 49 21 5.0 12.0 0.00 0.10 0.00 57 1011.8
20260507154516 48 303 2.0 10.0 0.00 0.10 0.00 58 1012.1
20260507153114 49 314 4.0 14.0 0.00 0.10 0.00 57 1012.2
20260507151516 48 92 4.0 13.0 0.00 0.10 0.00 60 1012.4
20260507150013 49 243 1.0 11.0 0.00 0.16 0.00 60 1012.2
20260507144511 48 205 1.0 10.0 0.00 0.16 0.00 60 1012.4
20260507143120 47 309 3.0 13.0 0.00 0.16 0.00 62 1012.5
20260507141515 47 4 3.0 12.0 0.00 0.16 0.00 61 1012.5
20260507140005 46 290 3.0 12.0 0.00 0.20 0.00 64 1012.4
20260507134501 45 167 3.0 12.0 0.00 0.20 0.00 64 1012.5
20260507133058 45 31 3.0 8.0 0.00 0.20 0.00 68 1012.6
20260507131601 44 297 2.0 7.0 0.00 0.20 0.00 70 1012.8
20260507130055 43 337 3.0 11.0 0.00 0.20 0.00 71 1012.7
20260507124602 42 17 3.0 12.0 0.00 0.21 0.00 73 1012.6
20260507123051 42 292 3.0 10.0 0.00 0.21 0.00 74 1012.6